Location: Ch�teau-Arnoux
(44.0814°N, 6.0027°E)
Time: 08:41:20
(UTC+00:00)

Cosmos 1980 Rocket - Pass Details

Date: 15 November 2019
Orbit: 828 x 851 km, 71.0° (Epoch: 12 December)

Event Time Altitude Azimuth Distance (km) Brightness Sun altitude
Exits shadow 05:30:01 13° 299° (WNW) 2,240 3.8 -11.0°
Maximum altitude 05:33:10 21° 260° (W) 1,829 3.4 -10.5°
Drops below altitude 10° 05:37:15 10° 213° (SSW) 2,465 4.5 -9.8°
Sets 05:40:15 0° 198° (SSW) 3,392 5.3 -9.3°
